Time,TemperatureF,DewpointF,PressureIn,WindDirection,WindDirectionDegrees,WindSpeedMPH,WindSpeedGustMPH,Humidity,HourlyPrecipIn,Conditions,Clouds,dailyrainin,SoftwareType,DateUTC
2013-08-23 00:00:00,85.0,77.0,30.00,West,260,18.0,-999.0,75,-99.99,,,-99.99,,2013-08-23 04:00:00,
2013-08-23 00:24:00,85.0,77.0,30.00,West,260,18.0,-999.0,75,-99.99,,,-99.99,,2013-08-23 04:24:00,
2013-08-23 00:43:00,85.0,77.0,30.00,West,260,18.0,-999.0,75,-99.99,,,-99.99,,2013-08-23 04:43:00,
2013-08-23 00:54:00,85.0,77.0,30.00,West,260,18.0,-999.0,75,-99.99,,,-99.99,,2013-08-23 04:54:00,
2013-08-23 01:00:00,85.0,76.0,29.99,West,270,18.0,-999.0,74,-99.99,,,-99.99,,2013-08-23 05:00:00,
2013-08-23 01:42:00,85.0,76.0,29.99,West,270,18.0,-999.0,74,-99.99,,,-99.99,,2013-08-23 05:42:00,
2013-08-23 01:52:00,85.0,76.0,29.99,West,270,18.0,-999.0,74,-99.99,,,-99.99,,2013-08-23 05:52:00,
2013-08-23 02:00:00,84.0,76.0,29.96,West,280,22.0,-999.0,77,-99.99,,,-99.99,,2013-08-23 06:00:00,
2013-08-23 02:41:00,84.0,76.0,29.96,West,280,22.0,-999.0,77,-99.99,,,-99.99,,2013-08-23 06:41:00,
2013-08-23 02:52:00,84.0,76.0,29.96,West,280,22.0,-999.0,77,-99.99,,,-99.99,,2013-08-23 06:52:00,
2013-08-23 03:00:00,84.0,76.0,29.96,WNW,290,20.0,-999.0,77,-99.99,,,-99.99,,2013-08-23 07:00:00,
2013-08-23 03:42:00,84.0,76.0,29.96,WNW,290,20.0,-999.0,77,-99.99,,,-99.99,,2013-08-23 07:42:00,
2013-08-23 03:52:00,84.0,76.0,29.96,WNW,290,20.0,-999.0,77,-99.99,,,-99.99,,2013-08-23 07:52:00,
2013-08-23 04:00:00,75.0,73.0,29.98,SSE,160,30.0,-999.0,92,-99.99,,,-99.99,,2013-08-23 08:00:00,
2013-08-23 04:42:00,75.0,73.0,29.98,SSE,160,30.0,-999.0,92,-99.99,,,-99.99,,2013-08-23 08:42:00,
2013-08-23 04:52:00,75.0,73.0,29.98,SSE,160,30.0,-999.0,92,-99.99,,,-99.99,,2013-08-23 08:52:00,
2013-08-23 05:00:00,77.0,69.0,29.96,East,90,10.0,-999.0,75,-99.99,,,-99.99,,2013-08-23 09:00:00,
2013-08-23 05:43:00,77.0,69.0,29.96,East,90,10.0,-999.0,75,-99.99,,,-99.99,,2013-08-23 09:43:00,
2013-08-23 05:53:00,77.0,69.0,29.96,East,90,10.0,-999.0,75,-99.99,,,-99.99,,2013-08-23 09:53:00,
2013-08-23 06:00:00,78.0,71.0,29.96,SSW,200,17.0,-999.0,77,-99.99,,,-99.99,,2013-08-23 10:00:00,
2013-08-23 06:42:00,78.0,71.0,29.96,SSW,200,17.0,-999.0,77,-99.99,,,-99.99,,2013-08-23 10:42:00,
2013-08-23 06:52:00,78.0,71.0,29.96,SSW,200,17.0,-999.0,77,-99.99,,,-99.99,,2013-08-23 10:52:00,
2013-08-23 07:00:00,80.0,70.0,29.97,SW,230,3.0,-999.0,70,-99.99,,,-99.99,,2013-08-23 11:00:00,
2013-08-23 07:42:00,80.0,70.0,29.97,SW,230,3.0,-999.0,70,-99.99,,,-99.99,,2013-08-23 11:42:00,
2013-08-23 07:52:00,80.0,70.0,29.97,SW,230,3.0,-999.0,70,-99.99,,,-99.99,,2013-08-23 11:52:00,
2013-08-23 08:00:00,80.0,69.0,29.99,NE,40,6.0,-999.0,68,-99.99,,,-99.99,,2013-08-23 12:00:00,
2013-08-23 08:21:00,80.0,69.0,29.99,NE,40,6.0,-999.0,68,-99.99,,,-99.99,,2013-08-23 12:21:00,
2013-08-23 08:31:00,80.0,69.0,29.99,NE,40,6.0,-999.0,68,-99.99,,,-99.99,,2013-08-23 12:31:00,
2013-08-23 08:42:00,80.0,69.0,29.99,NE,40,6.0,-999.0,68,-99.99,,,-99.99,,2013-08-23 12:42:00,
2013-08-23 08:51:00,80.0,69.0,29.99,NE,40,6.0,-999.0,68,-99.99,,,-99.99,,2013-08-23 12:51:00,
2013-08-23 09:00:00,80.0,71.0,29.97,SW,220,10.0,-999.0,74,-99.99,,,-99.99,,2013-08-23 13:00:00,
2013-08-23 09:41:00,80.0,71.0,29.97,SW,220,10.0,-999.0,74,-99.99,,,-99.99,,2013-08-23 13:41:00,
2013-08-23 09:52:00,80.0,71.0,29.97,SW,220,10.0,-999.0,74,-99.99,,,-99.99,,2013-08-23 13:52:00,
2013-08-23 10:00:00,82.0,70.0,29.96,SW,230,9.0,-999.0,66,-99.99,,,-99.99,,2013-08-23 14:00:00,
2013-08-23 10:42:00,82.0,70.0,29.96,SW,230,9.0,-999.0,66,-99.99,,,-99.99,,2013-08-23 14:42:00,
2013-08-23 10:52:00,82.0,70.0,29.96,SW,230,9.0,-999.0,66,-99.99,,,-99.99,,2013-08-23 14:52:00,
2013-08-23 11:00:00,82.0,69.0,29.96,SW,220,10.0,-999.0,64,-99.99,,,-99.99,,2013-08-23 15:00:00,
2013-08-23 11:43:00,82.0,69.0,29.96,SW,220,10.0,-999.0,64,-99.99,,,-99.99,,2013-08-23 15:43:00,
2013-08-23 11:54:00,82.0,69.0,29.96,SW,220,10.0,-999.0,64,-99.99,,,-99.99,,2013-08-23 15:54:00,
2013-08-23 12:00:00,85.0,73.0,29.96,SW,230,14.0,-999.0,67,-99.99,,,-99.99,,2013-08-23 16:00:00,
2013-08-23 12:24:00,85.0,73.0,29.96,SW,230,14.0,-999.0,67,-99.99,,,-99.99,,2013-08-23 16:24:00,
2013-08-23 12:34:00,85.0,73.0,29.96,SW,230,14.0,-999.0,67,-99.99,,,-99.99,,2013-08-23 16:34:00,
2013-08-23 12:42:00,85.0,73.0,29.96,SW,230,14.0,-999.0,67,-99.99,,,-99.99,,2013-08-23 16:42:00,
2013-08-23 12:53:00,85.0,73.0,29.96,SW,230,14.0,-999.0,67,-99.99,,,-99.99,,2013-08-23 16:53:00,
2013-08-23 13:00:00,85.0,72.0,29.95,WSW,240,13.0,-999.0,67,-99.99,,,-99.99,,2013-08-23 17:00:00,
2013-08-23 13:42:00,85.0,72.0,29.95,WSW,240,13.0,-999.0,67,-99.99,,,-99.99,,2013-08-23 17:42:00,
2013-08-23 13:53:00,85.0,72.0,29.95,WSW,240,13.0,-999.0,67,-99.99,,,-99.99,,2013-08-23 17:53:00,
2013-08-23 14:00:00,83.0,72.0,29.95,SW,220,16.0,-999.0,69,-99.99,,,-99.99,,2013-08-23 18:00:00,
2013-08-23 14:42:00,83.0,72.0,29.95,SW,220,16.0,-999.0,69,-99.99,,,-99.99,,2013-08-23 18:42:00,
2013-08-23 14:52:00,83.0,72.0,29.95,SW,220,16.0,-999.0,69,-99.99,,,-99.99,,2013-08-23 18:52:00,
2013-08-23 15:00:00,83.0,72.0,29.94,SW,230,16.0,-999.0,69,-99.99,,,-99.99,,2013-08-23 19:00:00,
2013-08-23 15:42:00,83.0,72.0,29.94,SW,230,16.0,-999.0,69,-99.99,,,-99.99,,2013-08-23 19:42:00,
2013-08-23 15:52:00,83.0,72.0,29.94,SW,230,16.0,-999.0,69,-99.99,,,-99.99,,2013-08-23 19:52:00,
2013-08-23 16:00:00,84.0,73.0,29.93,WSW,240,14.0,-999.0,70,-99.99,,,-99.99,,2013-08-23 20:00:00,
2013-08-23 16:42:00,84.0,73.0,29.93,WSW,240,14.0,-999.0,70,-99.99,,,-99.99,,2013-08-23 20:42:00,
2013-08-23 16:52:00,84.0,73.0,29.93,WSW,240,14.0,-999.0,70,-99.99,,,-99.99,,2013-08-23 20:52:00,
2013-08-23 17:00:00,79.0,70.0,29.93,West,280,21.0,-999.0,73,-99.99,,,-99.99,,2013-08-23 21:00:00,
2013-08-23 17:43:00,79.0,70.0,29.93,West,280,21.0,-999.0,73,-99.99,,,-99.99,,2013-08-23 21:43:00,
2013-08-23 17:54:00,79.0,70.0,29.93,West,280,21.0,-999.0,73,-99.99,,,-99.99,,2013-08-23 21:54:00,
2013-08-23 18:00:00,82.0,69.0,29.93,West,260,20.0,-999.0,64,-99.99,,,-99.99,,2013-08-23 22:00:00,
2013-08-23 18:42:00,82.0,69.0,29.93,West,260,20.0,-999.0,64,-99.99,,,-99.99,,2013-08-23 22:42:00,
2013-08-23 18:53:00,82.0,69.0,29.93,West,260,20.0,-999.0,64,-99.99,,,-99.99,,2013-08-23 22:53:00,
2013-08-23 19:00:00,81.0,70.0,29.92,NNW,330,8.0,-999.0,67,-99.99,,,-99.99,,2013-08-23 23:00:00,
2013-08-23 19:43:00,81.0,70.0,29.92,NNW,330,8.0,-999.0,67,-99.99,,,-99.99,,2013-08-23 23:43:00,
2013-08-23 19:53:00,81.0,70.0,29.92,NNW,330,8.0,-999.0,67,-99.99,,,-99.99,,2013-08-23 23:53:00,
2013-08-23 20:00:00,82.0,70.0,29.93,West,260,10.0,-999.0,65,-99.99,,,-99.99,,2013-08-24 00:00:00,
2013-08-23 20:43:00,82.0,70.0,29.93,West,260,10.0,-999.0,65,-99.99,,,-99.99,,2013-08-24 00:43:00,
2013-08-23 20:52:00,82.0,70.0,29.93,West,260,10.0,-999.0,65,-99.99,,,-99.99,,2013-08-24 00:52:00,
2013-08-23 21:00:00,80.0,72.0,29.94,NNW,330,5.0,-999.0,76,-99.99,,,-99.99,,2013-08-24 01:00:00,
2013-08-23 21:42:00,80.0,72.0,29.94,NNW,330,5.0,-999.0,76,-99.99,,,-99.99,,2013-08-24 01:42:00,
2013-08-23 21:53:00,80.0,72.0,29.94,NNW,330,5.0,-999.0,76,-99.99,,,-99.99,,2013-08-24 01:53:00,
2013-08-23 22:00:00,81.0,72.0,29.94,West,270,8.0,-999.0,75,-99.99,,,-99.99,,2013-08-24 02:00:00,
2013-08-23 22:42:00,81.0,72.0,29.94,West,270,8.0,-999.0,75,-99.99,,,-99.99,,2013-08-24 02:42:00,
2013-08-23 22:52:00,81.0,72.0,29.94,West,270,8.0,-999.0,75,-99.99,,,-99.99,,2013-08-24 02:52:00,
2013-08-23 23:00:00,81.0,72.0,29.95,WSW,250,8.0,-999.0,72,-99.99,,,-99.99,,2013-08-24 03:00:00,
2013-08-23 23:44:00,81.0,72.0,29.95,WSW,250,8.0,-999.0,72,-99.99,,,-99.99,,2013-08-24 03:44:00,
2013-08-23 23:54:00,81.0,72.0,29.95,WSW,250,8.0,-999.0,72,-99.99,,,-99.99,,2013-08-24 03:54:00,